Location: Camp at the Woods
(43.2055°N, 93.0905°W)
Time: 09:27:04
(UTC+00:00)

BlueWalker 3 - Pass Details

Date: 17 April 2024
Orbit: 482 x 494 km, 53.2° (Epoch: 22 May)

Event Time Altitude Azimuth Distance (km) Brightness Sun altitude
Exits shadow 08:45:12 21° 108° (ESE) 1,160 4.0 -25.8°
Drops below altitude 10° 08:46:35 10° 114° (ESE) 1,692 4.8 -25.6°
Sets 08:48:47 0° 118° (ESE) 2,570 5.7 -25.3°
